User: anonymous   Login
Location: Vancouver
(49.2500°N, 123.1330°W)
Time: 05:56:56
(UTC-07:00)
Language:

ISS - Orbit

View from above orbital plane
View from above orbital plane
View from above satellite
View from above satellite

Ground track
Ground track

The orbit data is extracted from the following two-line orbital elements,

1 25544U 98067A   14303.20526916  .00021632  00000-0  37557-3 0  3259
2 25544 051.6439 150.2911 0003565 342.1990 125.1719 15.50772266912274
Epoch (UTC): 30 October 2014 04:55:35
Eccentricity: 0.0003565
inclination: 51.6439°
perigee height: 412 km
apogee height: 417 km
right ascension of ascending node: 150.2911°
argument of perigee: 342.1990°
revolutions per day: 15.50772266
mean anomaly at epoch: 125.1719°
orbit number at epoch: 91227

The dashed part of the orbit path shows where the satellite is in the earth's shadow,  

DLR